Home   Weather   Perm   Past weeks

Flag for Russia Past Weather in Perm, Russia — Yesterday and Last 2 Weeks

Now
43 °F

Sunny.


Feels Like: 38 °F
Forecast: 29 / 51 °F
Wind: 8 mph from Southwest

Location: Perm'/Bolshoe Savino

Current Time: Apr 29, 2017 at 8:37:57 am

Latest Report: Apr 29, 2017 at 8:00 am


Visibility: 10 mi

Pressure: 30.33 "Hg

Humidity: 87%

Dew Point: 39 °F

Location of PermLocation

Past Weather in Perm — Graph

°F

Perm Temperature Yesterday

Maximum temperature yesterday: 57 °F (at 11:30 am)
Minimum temperature yesterday: 39 °F (at 11:30 pm)
Average temperature yesterday: 50 °F

High & Low Weather Summary for the Past Weeks

 TemperatureHumidityPressure
High63 °F (Apr 27, 3:00 pm)100% (Apr 15, 8:30 am)30.33 "Hg (Apr 15, 8:30 am)
Low25 °F (Apr 17, 5:30 am)34% (Apr 22, 4:00 pm)29.12 "Hg (Apr 15, 5:30 pm)
Average39 °F72%29.80 "Hg
* Reported Apr 14 7:00 am — Apr 29 7:30 am, Perm, Weather by CustomWeather, © 2017

Note: Actual official high and low records may vary slightly from our data, if they occured in-between our weather recording intervals... More about our weather records

Advertising

Perm Weather History for the Previous 24 Hours

Scroll right to see more
 ConditionsComfort  
Time TempWeatherWind HumidityBarometerVisibility
7:30 am
Sat, Apr 29
41 °FSunny.8 mph87%30.33 "Hg10 mi
7:00 am39 °FSunny.8 mph93%30.30 "Hg10 mi
6:30 am39 °FSunny.8 mph87%30.30 "Hg10 mi
6:00 am37 °FClear.8 mph93%30.30 "Hg10 mi
5:30 am37 °FClear.8 mph93%30.27 "Hg10 mi
5:00 am37 °FClear.8 mph93%30.27 "Hg10 mi
4:30 am37 °FClear.10 mph93%30.27 "Hg10 mi
4:00 am37 °FClear.10 mph93%30.24 "Hg10 mi
3:30 am37 °FClear.10 mph93%30.24 "Hg10 mi
3:00 am37 °FClear.8 mph93%30.24 "Hg10 mi
2:30 am36 °FClear.10 mph100%30.24 "Hg10 mi
2:00 am37 °FClear.8 mph93%30.24 "Hg10 mi
1:00 am37 °FClear.8 mph93%30.21 "Hg10 mi
12:30 am39 °FClear.6 mph93%30.21 "Hg10 mi
12:00 am37 °FClear.6 mph100%30.21 "Hg10 mi
11:30 pm
Fri, Apr 28
39 °FClear.6 mph93%30.18 "Hg10 mi
11:00 pm41 °FClear.3 mph87%30.18 "Hg10 mi
10:30 pm41 °FClear.6 mph93%30.18 "Hg10 mi
10:00 pm43 °FClear.6 mph87%30.18 "Hg10 mi
9:30 pm43 °FScattered clouds.6 mph93%30.15 "HgN/A
9:00 pm43 °FPartly sunny.3 mph93%30.15 "HgN/A
8:30 pm43 °FPartly sunny.3 mph93%30.15 "HgN/A
8:00 pm43 °FSprinkles. Partly sunny.6 mph93%30.12 "HgN/A
7:30 pm45 °FSprinkles. Partly sunny.3 mph87%30.12 "HgN/A
7:00 pm45 °FSprinkles. Partly sunny.6 mph93%30.12 "HgN/A
6:30 pm45 °FSprinkles. Partly sunny.6 mph93%30.12 "HgN/A
6:00 pm45 °FSprinkles. Partly sunny.6 mph93%30.09 "HgN/A
5:30 pm46 °FSprinkles. Partly sunny.8 mph87%30.09 "HgN/A
5:00 pm48 °FSprinkles. Partly sunny.8 mph87%30.09 "HgN/A
4:30 pm48 °FSprinkles. Partly sunny.3 mph87%30.09 "HgN/A
4:00 pm48 °FSprinkles. Partly sunny.10 mph82%30.07 "HgN/A
3:30 pm50 °FSprinkles. Scattered clouds.10 mph76%30.07 "HgN/A
3:00 pm55 °FPassing clouds.8 mph59%30.04 "HgN/A
2:30 pm55 °FSprinkles. Passing clouds.10 mph51%30.04 "HgN/A
2:00 pm55 °FPassing clouds.6 mph59%30.01 "HgN/A
1:30 pm55 °FSprinkles. Passing clouds.6 mph51%30.01 "HgN/A
12:30 pm55 °FSunny.13 mph47%30.01 "Hg10 mi
12:00 pm55 °FSunny.15 mph47%30.01 "Hg10 mi
11:30 am57 °FSunny.17 mph44%30.01 "Hg10 mi
11:00 am55 °FSunny.20 mph47%30.01 "Hg10 mi
10:30 am55 °FSunny.20 mph47%30.01 "Hg10 mi
10:00 am55 °FSunny.20 mph47%30.01 "Hg10 mi
9:30 am55 °FSunny.20 mph51%30.01 "Hg10 mi
9:00 am55 °FSunny.20 mph51%30.01 "Hg10 mi
8:30 am54 °FSunny.20 mph54%30.01 "Hg10 mi
8:00 am54 °FSunny.20 mph54%30.01 "Hg10 mi
Weather by CustomWeather, © 2017

See weather overviewHow to use our weather pages